Weather History for KBGR - July, 2014

Change the Weather History Date:

Friday, July 18, 2014

  Actual Average Record
Temperature  
Mean Temperature 68 °F 69 °F  
Max Temperature 80 °F 80 °F 93 °F (1982)
Min Temperature 55 °F 58 °F 43 °F (1944)
Degree Days  
Heating Degree Days 0 1  
Month to date heating degree days 5 18  
Since 1 June heating degree days 76 125  
Since 1 July heating degree days 5 18  
Cooling Degree Days 3 5  
Month to date cooling degree days 119 71  
Year to date cooling degree days 165 129  
Since 1 June cooling degree days 165 123  
Growing Degree Days 18 (Base 50)    
Moisture  
Dew Point 55 °F    
Average Humidity 65    
Maximum Humidity 93    
Minimum Humidity 36    
Precipitation  
Precipitation 0.00 in 0.12 in 0.76 in (1932)
Month to date precipitation 5.61 1.94  
Year to date precipitation 23.61 21.75  
Snow  
Snow 0.00 in 0.00 in 0.00 in (2002)
Month to date snowfall 0.0 0.0  
Since 1 June snowfall 0.0 0.0  
Since 1 July snowfall 0.0 0.0  
Snow Depth 0.00 in    
Sea Level Pressure  
Sea Level Pressure 30.12 in    
Wind  
Wind Speed 5 mph (West)    
Max Wind Speed 15 mph    
Max Gust Speed 20 mph    
Visibility 10 miles    
Events      
T = Trace of Precipitation, MM = Missing Value Source: NWS Daily Summary

Daily Weather History Graph

Daily Weather History Graph

Search for Another Location

Airport or City:

Trip Planner

Search our weather history database for the weather conditions in past years. The results will help you decide how hot, cold, wet, or windy it might be!

Date:

Astronomy

Jul. 18, 2014 Rise Set
Actual Time 5:06 AM EDT 8:16 PM EDT
Civil Twilight 4:31 AM EDT 8:51 PM EDT
Nautical Twilight 3:45 AM EDT 9:36 PM EDT
Astronomical Twilight 2:49 AM EDT 10:32 PM EDT
Moon 11:48 PM EDT (7/18) 12:39 PM EDT (7/18)
Length of Visible Light 16h 20m
Length of Day
15h 09m
Waning Gibbous, 55% of the Moon is Illuminated
Jul 18
Waning Gibbous
Jul 18
Last Quarter
Jul 26
New
Aug 3
First Quarter
Aug 10
Full

Hourly Weather History & Observations

Time (EDT) Temp. Dew Point Humidity Pressure Visibility Wind Dir Wind Speed Gust Speed Precip Events Conditions
12:53 AM 61.0 °F 55.9 °F 83% 30.03 in 10.0 mi Calm Calm - N/A   Mostly Cloudy
1:53 AM 57.2 °F 53.6 °F 88% 30.05 in 10.0 mi West 4.6 mph - N/A   Partly Cloudy
2:53 AM 59.0 °F 54.0 °F 83% 30.06 in 10.0 mi SW 4.6 mph - N/A   Partly Cloudy
3:53 AM 55.9 °F 53.1 °F 90% 30.07 in 10.0 mi SW 3.5 mph - N/A   Clear
4:53 AM 55.9 °F 53.1 °F 90% 30.08 in 10.0 mi Calm Calm - N/A   Partly Cloudy
5:53 AM 57.9 °F 53.1 °F 84% 30.09 in 10.0 mi SW 4.6 mph - N/A   Partly Cloudy
6:53 AM 62.1 °F 54.0 °F 75% 30.11 in 10.0 mi West 6.9 mph - N/A   Mostly Cloudy
7:53 AM 66.0 °F 55.0 °F 68% 30.13 in 10.0 mi Variable 5.8 mph - N/A   Mostly Cloudy
8:53 AM 68.0 °F 55.0 °F 63% 30.13 in 10.0 mi WSW 8.1 mph - N/A   Mostly Cloudy
9:53 AM 71.1 °F 55.0 °F 57% 30.13 in 10.0 mi West 9.2 mph - N/A   Mostly Cloudy
10:53 AM 72.0 °F 55.0 °F 55% 30.13 in 10.0 mi NW 10.4 mph - N/A   Mostly Cloudy
11:53 AM 75.0 °F 57.0 °F 53% 30.13 in 10.0 mi West 6.9 mph - N/A   Mostly Cloudy
12:53 PM 75.9 °F 57.0 °F 52% 30.12 in 10.0 mi West 11.5 mph - N/A   Mostly Cloudy
1:53 PM 79.0 °F 54.0 °F 42% 30.11 in 10.0 mi WNW 8.1 mph - N/A   Mostly Cloudy
2:53 PM 78.8 °F 53.6 °F 42% 30.12 in 10.0 mi WNW 8.1 mph 17.3 mph N/A   Mostly Cloudy
3:53 PM 80.1 °F 52.0 °F 38% 30.10 in 10.0 mi WNW 11.5 mph 19.6 mph N/A   Scattered Clouds
4:53 PM 80.1 °F 52.0 °F 38% 30.11 in 10.0 mi WNW 6.9 mph - N/A   Scattered Clouds
5:53 PM 79.0 °F 52.0 °F 39% 30.12 in 10.0 mi WNW 5.8 mph - N/A   Partly Cloudy
6:53 PM 75.9 °F 54.0 °F 46% 30.14 in 10.0 mi WNW 4.6 mph - N/A   Partly Cloudy
7:53 PM 70.0 °F 57.9 °F 65% 30.15 in 10.0 mi Calm Calm - N/A   Scattered Clouds
8:53 PM 66.9 °F 55.9 °F 68% 30.17 in 10.0 mi West 4.6 mph - N/A   Partly Cloudy
9:53 PM 66.0 °F 57.9 °F 75% 30.19 in 10.0 mi South 4.6 mph - N/A   Partly Cloudy
10:53 PM 63.0 °F 57.9 °F 84% 30.20 in 10.0 mi Calm Calm - N/A   Clear
11:53 PM 61.0 °F 57.9 °F 90% 30.22 in 10.0 mi Calm Calm - N/A   Clear